Regional Weather Roundup
Issued by NWS

Home | Current Version | Previous Version | Graphics & Text | Print | Product List | Glossary On
Versions: 1 2 3 4 5 6 7 8 9 10 11 12 13 14 15 16 17 18 19 20 21 22 23 24 25 26 27 28 29 30 31 32 33 34 35 36 37 38 39 40 41 42 43 44 45 46 47 48 49 50
000
ASUS43 KLMK 041510
RWRKY
KENTUCKY REGIONAL WEATHER ROUNDUP
NATIONAL WEATHER SERVICE LOUISVILLE KY
1100 AM EDT WED MAY 04 2016

NOTE "FAIR" INDICATES FEW OR NO CLOUDS BELOW 12,000 FEET
WITH NO SIGNIFICANT WEATHER AND/OR OBSTRUCTIONS TO VISIBILITY.

KYZ001>023-026-027-061>063-070>075-041600-
WESTERN AND SOUTH CENTRAL KENTUCKY

CITY           SKY/WX    TMP DP  RH WIND       PRES   REMARKS
PADUCAH        CLOUDY    59  48  67 W10       29.75S
HENDERSON      CLOUDY    54  48  82 SW3       29.72F
OWENSBORO      LGT RAIN  53  52  97 N5        29.76S FOG
HOPKINSVILLE   MOSUNNY   64  49  58 SW15      29.75F
BOWLING GREEN  CLOUDY    64  48  56 SW14G22   29.76F
GLASGOW        MOSUNNY   62  46  55 W12       29.77F
$$

KYZ024-025-028>034-038-045-046-053-041600-
NORTH CENTRAL KENTUCKY

CITY           SKY/WX    TMP DP  RH WIND       PRES   REMARKS
LOUISVILLE/SDF LGT RAIN  56  46  69 W12       29.73S
LOUISVILLE/LOU LGT RAIN  56  45  66 W13       29.73F
FORT KNOX      LGT RAIN  56  46  68 SW9G20    29.72F
$$

KYZ035>037-039>044-047>052-055>060-089>105-041600-
NORTHEAST KENTUCKY

CITY           SKY/WX    TMP DP  RH WIND       PRES   REMARKS
LEXINGTON      MOSUNNY   61  43  51 SW15G22   29.73F
COVINGTON      LGT RAIN  53  44  71 W8G21     29.71S
FRANKFORT      CLOUDY    58  43  57 SW10      29.71F
$$

KYZ054-064>069-076>088-106>120-041600-
SOUTHEAST KENTUCKY

CITY           SKY/WX    TMP DP  RH WIND       PRES   REMARKS
JACKSON        MOSUNNY   61  47  59 VRB5      29.76F
LONDON         SUNNY     59  41  51 SW5       29.77F
SOMERSET       SUNNY     59  43  55 SW10G17   29.79F
MIDDLESBORO    PTSUNNY   60  42  51 NW7       29.79F
MONTICELLO     SUNNY     61  47  59 W14G20    29.81F
$$





USA.gov is the U.S. government's official web portal to all federal, state and local government web resources and services.